Cosmos 1825 - Orbit

View from above orbital plane
View from above orbital plane
View from above satellite
View from above satellite

Ground track
Ground track

The orbit data is extracted from the following two-line orbital elements,

1 17566U 87024A   13144.51615420  .00003472  00000-0  21644-3 0  7289
2 17566 082.5083 313.3386 0003753 323.6995 091.6595 15.09249171429082
Epoch (UTC): 24 May 2013 12:23:15
Eccentricity: 0.0003753
inclination: 82.5083°
perigee height: 536 km
apogee height: 541 km
right ascension of ascending node: 313.3386°
argument of perigee: 323.6995°
revolutions per day: 15.09249171
mean anomaly at epoch: 91.6595°
orbit number at epoch: 42908

The dashed part of the orbit path shows where the satellite is in the earth's shadow,  

Developed and maintained by Chris Peat, Heavens-Above GmbH. Please read the updated FAQ before sending e-mail. Imprint. DLR